FW2116 Weather Reports


time (UTC)temp
C
wind
direction
speed
KPH
gust
KPH
rain 1hr
cm
rain 24hr
cm
rain mn
cm
humidity
%
barometer
mb
20260505110550 12 323 0.0 1.6 0.00 0.00 0.00 85 1014.8
20260505102045 12 7 0.0 0.0 0.00 0.00 0.00 85 1014.4
20260505101553 12 7 0.0 0.0 0.00 0.00 0.00 85 1014.4
20260505101046 12 7 0.0 0.0 0.00 0.00 0.00 85 1014.3
20260505100546 12 320 0.0 0.0 0.00 0.00 0.00 85 1014.4
20260505100046 12 320 0.0 0.0 0.00 0.00 0.00 85 1014.4
20260505095544 12 342 0.0 1.6 0.00 0.00 0.00 85 1014.3
20260505095048 12 342 0.0 1.6 0.00 0.00 0.00 85 1014.3
20260505094552 12 72 0.0 0.0 0.00 0.00 0.00 85 1014.3
20260505094043 12 73 0.0 0.0 0.00 0.00 0.00 86 1014.4
20260505093545 12 73 0.0 0.0 0.00 0.00 0.00 86 1014.4
20260505093051 12 73 0.0 0.0 0.00 0.00 0.00 85 1014.3
20260505092544 12 73 0.0 0.0 0.00 0.00 0.00 85 1014.3
20260505092046 12 73 0.0 0.0 0.00 0.00 0.00 85 1014.1
20260505091541 12 73 0.0 0.0 0.00 0.00 0.00 85 1014.2
20260505091040 12 73 0.0 0.0 0.00 0.00 0.00 85 1014.1
20260505090539 12 73 0.0 0.0 0.00 0.00 0.00 85 1013.9
20260505090039 12 320 0.0 0.0 0.00 0.00 0.00 85 1014.0
20260505085542 12 320 0.0 0.0 0.00 0.00 0.00 85 1014.0
20260505085042 12 320 0.0 0.0 0.00 0.00 0.00 85 1013.9
20260505084539 12 320 0.0 0.0 0.00 0.00 0.00 85 1013.9
20260505084038 12 320 0.0 0.0 0.00 0.00 0.00 84 1013.9
20260505083542 12 319 0.0 0.0 0.00 0.00 0.00 84 1013.9
20260505083047 12 319 0.0 1.6 0.00 0.00 0.00 84 1013.8
20260505082538 12 319 0.0 1.6 0.00 0.00 0.00 84 1013.8
20260505082037 12 326 0.0 0.0 0.00 0.00 0.00 84 1013.9
20260505081536 12 251 0.0 1.6 0.00 0.00 0.00 84 1013.8
20260505081038 12 251 0.0 1.6 0.00 0.00 0.00 84 1013.7
20260505080536 12 253 0.0 1.6 0.00 0.00 0.00 85 1013.7
20260505080035 12 238 0.0 3.2 0.00 0.00 0.00 85 1013.9
20260505075534 12 247 0.0 1.6 0.00 0.00 0.00 85 1013.7
20260505075033 12 247 0.0 1.6 0.00 0.00 0.00 84 1013.7
20260505074534 12 295 0.0 0.0 0.00 0.00 0.00 84 1013.8
20260505074032 12 295 0.0 1.6 0.00 0.00 0.00 84 1013.7
20260505073531 12 295 0.0 1.6 0.00 0.00 0.00 84 1013.5
20260505073031 12 351 0.0 1.6 0.00 0.00 0.00 84 1013.4
20260505072530 12 4 0.0 1.6 0.00 0.00 0.00 83 1013.3
20260505072028 12 7 0.0 1.6 0.00 0.00 0.00 83 1013.3
20260505071527 12 295 0.0 1.6 0.00 0.00 0.00 83 1013.2
20260505071026 12 326 0.0 1.6 0.00 0.00 0.00 82 1013.2
20260505070525 12 325 0.0 4.8 0.00 0.00 0.00 82 1013.1
20260505070027 12 290 1.6 4.8 0.00 0.00 0.00 82 1013.1
20260505065525 13 316 0.0 3.2 0.00 0.00 0.00 81 1013.1
20260505065023 13 261 0.0 1.6 0.00 0.00 0.00 81 1012.9
20260505064524 13 319 0.0 1.6 0.00 0.00 0.00 80 1012.9
20260505064023 13 16 0.0 3.2 0.00 0.00 0.00 80 1012.8
20260505063523 13 240 0.0 4.8 0.00 0.00 0.00 80 1012.8
20260505063023 13 304 0.0 4.8 0.00 0.00 0.00 80 1012.7
20260505062523 13 298 0.0 3.2 0.00 0.00 0.00 79 1012.7
20260505062022 13 267 0.0 0.0 0.00 0.00 0.00 79 1012.5
20260505061523 13 267 0.0 1.6 0.00 0.00 0.00 78 1012.3
20260505061022 13 267 0.0 0.0 0.00 0.00 0.00 78 1012.4
20260505060522 14 267 0.0 0.0 0.00 0.00 0.00 78 1012.2
20260505060024 14 267 0.0 1.6 0.00 0.00 0.00 77 1012.2
20260505055522 14 267 0.0 3.2 0.00 0.00 0.00 77 1012.2
20260505055021 14 229 0.0 3.2 0.00 0.00 0.00 77 1012.2
20260505054526 15 34 0.0 0.0 0.00 0.00 0.00 76 1012.1
20260505054021 15 34 0.0 0.0 0.00 0.00 0.00 76 1012.1
20260505053521 15 79 0.0 0.0 0.00 0.00 0.00 75 1012.1
20260505053025 15 1 0.0 1.6 0.00 0.00 0.00 74 1012.1
20260505052520 15 1 0.0 3.2 0.00 0.00 0.00 74 1012.0
20260505052025 16 307 0.0 3.2 0.00 0.00 0.00 74 1012.1
20260505051520 16 353 0.0 1.6 0.00 0.00 0.00 73 1012.0
20260505051020 16 244 0.0 0.0 0.00 0.00 0.00 73 1012.0
20260505050520 16 243 0.0 0.0 0.00 0.00 0.00 72 1012.0
20260505041517 18 219 0.0 1.6 0.00 0.00 0.00 68 1011.3
20260505041017 18 155 0.0 1.6 0.00 0.00 0.00 68 1011.1
20260505040517 18 290 0.0 4.8 0.00 0.00 0.00 68 1011.1
20260505040034 18 4 0.0 6.4 0.00 0.00 0.00 67 1010.9
20260505035517 18 335 1.6 6.4 0.00 0.00 0.00 67 1010.9
20260505035016 18 18 0.0 4.8 0.00 0.00 0.00 67 1010.8
20260505034525 19 324 1.6 4.8 0.00 0.00 0.00 67 1010.7
20260505034016 19 339 0.0 1.6 0.00 0.00 0.00 66 1010.6
20260505033516 20 302 0.0 1.6 0.00 0.00 0.00 66 1010.6
20260505033017 20 41 0.0 6.4 0.00 0.00 0.00 65 1010.5
20260505032516 20 319 1.6 6.4 0.00 0.00 0.00 65 1010.5
20260505032015 20 338 0.0 6.4 0.00 0.00 0.00 65 1010.4
20260505031515 21 308 0.0 4.8 0.00 0.00 0.00 66 1010.3
20260505031015 21 146 0.0 1.6 0.00 0.00 0.00 67 1010.3
20260505030514 21 149 0.0 1.6 0.00 0.00 0.00 67 1010.1
20260505030018 21 137 0.0 1.6 0.00 0.00 0.00 66 1010.0
20260505025516 21 244 0.0 4.8 0.00 0.00 0.00 66 1009.9
20260505025014 22 200 0.0 1.6 0.00 0.00 0.00 65 1009.9
20260505024514 22 236 0.0 1.6 0.00 0.00 0.00 64 1009.9
20260505024014 22 254 0.0 3.2 0.00 0.00 0.00 63 1009.8
20260505023515 23 255 0.0 6.4 0.00 0.00 0.00 62 1009.8
20260505023014 23 202 0.0 6.4 0.00 0.00 0.00 61 1009.8
20260505022513 24 181 0.0 8.0 0.00 0.00 0.00 60 1009.8
20260505022014 24 345 0.0 8.0 0.00 0.00 0.00 60 1009.8
20260505021514 24 152 0.0 3.2 0.00 0.00 0.00 59 1009.7
20260505021016 24 168 0.0 8.0 0.00 0.00 0.00 59 1009.8
20260505020512 25 283 0.0 8.0 0.00 0.00 0.00 59 1009.8
20260505020014 25 155 0.0 4.8 0.00 0.00 0.00 58 1009.7
20260505015512 25 213 0.0 9.7 0.00 0.00 0.00 58 1009.7
20260505015016 25 173 0.0 9.7 0.00 0.00 0.00 58 1009.8
20260505014514 25 259 0.0 4.8 0.00 0.00 0.00 57 1009.8
20260505014011 25 165 0.0 3.2 0.00 0.00 0.00 57 1009.8
20260505013511 25 281 0.0 3.2 0.00 0.00 0.00 57 1009.9
20260505013011 25 303 0.0 6.4 0.00 0.00 0.00 57 1009.8
20260505012511 25 172 1.6 6.4 0.00 0.00 0.00 57 1009.8
20260505012011 25 142 0.0 4.8 0.00 0.00 0.00 56 1009.9
20260505011511 25 288 0.0 6.4 0.00 0.00 0.00 56 1010.1
20260505011012 25 332 0.0 6.4 0.00 0.00 0.00 56 1010.1
20260505010510 25 146 0.0 11.3 0.00 0.00 0.00 55 1010.0
20260505010010 25 289 0.0 4.8 0.00 0.00 0.00 55 1010.1
20260505005508 25 237 0.0 6.4 0.00 0.00 0.00 57 1010.1
20260505005011 25 154 0.0 6.4 0.00 0.00 0.00 56 1010.1
20260505004514 25 155 0.0 6.4 0.00 0.00 0.00 56 1010.1
20260505004007 25 210 1.6 8.0 0.00 0.00 0.00 56 1010.1
20260505003509 25 169 1.6 8.0 0.00 0.00 0.00 56 1010.2
20260505003004 24 191 0.0 9.7 0.00 0.00 0.00 56 1010.2
20260505002504 24 233 4.8 9.7 0.00 0.00 0.00 56 1010.3
20260505002004 25 134 0.0 9.7 0.00 0.00 0.00 56 1010.3
20260505001503 24 302 1.6 9.7 0.00 0.00 0.00 56 1010.3
20260505001103 24 291 3.2 8.0 0.00 0.00 0.00 56 1010.2
20260505000501 24 288 3.2 8.0 0.00 0.00 0.00 56 1010.4
20260505000002 24 326 0.0 9.7 0.00 0.00 0.00 56 1010.4
20260504235600 24 314 1.6 9.7 0.00 0.00 0.00 56 1010.4
20260504235100 25 267 4.8 9.7 0.00 0.00 0.00 55 1010.4
20260504234612 24 200 0.0 4.8 0.00 0.00 0.00 56 1010.3
20260504234100 23 217 0.0 9.7 0.00 0.00 0.00 57 1010.3
20260504233557 24 275 4.8 9.7 0.00 0.00 0.00 56 1010.4
20260504233058 24 146 1.6 3.2 0.00 0.00 0.00 56 1010.4
20260504232555 23 241 0.0 3.2 0.00 0.00 0.00 57 1010.3
20260504232053 23 120 0.0 8.0 0.00 0.00 0.00 56 1010.4
20260504231553 23 249 0.0 8.0 0.00 0.00 0.00 57 1010.4
20260504231051 23 160 1.6 8.0 0.00 0.00 0.00 58 1010.5
20260504230551 23 229 0.0 8.0 0.00 0.00 0.00 58 1010.6
20260504230053 23 246 3.2 6.4 0.00 0.00 0.00 57 1010.7
20260504225552 23 309 0.0 4.8 0.00 0.00 0.00 59 1010.7
20260504225054 23 92 1.6 4.8 0.00 0.00 0.00 58 1010.8
20260504224553 23 252 0.0 6.4 0.00 0.00 0.00 58 1010.7
20260504224048 23 155 1.6 6.4 0.00 0.00 0.00 58 1010.7
20260504223546 22 91 1.6 8.0 0.00 0.00 0.00 59 1010.9
20260504223045 22 89 1.6 8.0 0.00 0.00 0.00 61 1011.0
20260504222545 22 155 1.6 11.3 0.00 0.00 0.00 61 1011.0
20260504222043 22 295 3.2 11.3 0.00 0.00 0.00 60 1011.2
20260504221543 22 212 0.0 8.0 0.00 0.00 0.00 61 1011.3
20260504221042 21 255 3.2 8.0 0.00 0.00 0.00 60 1011.3
20260504220541 21 256 1.6 11.3 0.00 0.00 0.00 62 1011.3
20260504220048 21 169 3.2 9.7 0.00 0.00 0.00 62 1011.4
20260504215541 21 281 3.2 9.7 0.00 0.00 0.00 61 1011.3
20260504215044 21 266 1.6 11.3 0.00 0.00 0.00 62 1011.4
20260504214540 21 302 3.2 11.3 0.00 0.00 0.00 62 1011.4
20260504214040 21 264 1.6 6.4 0.00 0.00 0.00 61 1011.5
20260504213540 21 256 3.2 6.4 0.00 0.00 0.00 60 1011.6
20260504213055 21 62 0.0 8.0 0.00 0.00 0.00 60 1011.7
20260504212539 21 139 1.6 8.0 0.00 0.00 0.00 61 1011.8
20260504212041 21 168 3.2 8.0 0.00 0.00 0.00 61 1011.9
20260504211541 21 309 0.0 8.0 0.00 0.00 0.00 63 1011.9
20260504211036 21 275 0.0 8.0 0.00 0.00 0.00 63 1011.9
20260504210536 21 156 1.6 8.0 0.00 0.00 0.00 62 1011.9
20260504210035 21 179 0.0 6.4 0.00 0.00 0.00 63 1012.1
20260504205533 20 45 0.0 9.7 0.00 0.00 0.00 64 1012.1
20260504205033 20 148 0.0 6.4 0.00 0.00 0.00 65 1012.3
20260504204540 20 312 1.6 9.7 0.00 0.00 0.00 64 1012.3
20260504204032 20 75 1.6 11.3 0.00 0.00 0.00 64 1012.3
20260504203532 20 146 1.6 9.7 0.00 0.00 0.00 64 1012.4
20260504203033 20 174 0.0 12.9 0.00 0.00 0.00 65 1012.6
20260504202531 20 165 3.2 12.9 0.00 0.00 0.00 65 1012.6
20260504202031 20 259 3.2 6.4 0.00 0.00 0.00 64 1012.7
20260504201530 20 278 1.6 6.4 0.00 0.00 0.00 65 1012.6
20260504201029 20 178 1.6 8.0 0.00 0.00 0.00 65 1012.6
20260504200529 20 138 0.0 8.0 0.00 0.00 0.00 65 1012.8
20260504200027 20 168 0.0 4.8 0.00 0.00 0.00 66 1012.8
20260504195526 19 191 1.6 6.4 0.00 0.00 0.00 67 1012.8
20260504195027 19 278 1.6 6.4 0.00 0.00 0.00 66 1012.8
20260504194524 19 191 1.6 8.0 0.00 0.00 0.00 67 1012.8
20260504194024 18 248 1.6 8.0 0.00 0.00 0.00 68 1012.8
20260504193523 19 252 1.6 6.4 0.00 0.00 0.00 67 1012.9
20260504193025 19 256 0.0 4.8 0.00 0.00 0.00 67 1012.9
20260504192523 18 134 0.0 4.8 0.00 0.00 0.00 68 1012.9
20260504192022 18 241 0.0 8.0 0.00 0.00 0.00 71 1013.0
20260504191525 18 308 3.2 8.0 0.00 0.00 0.00 70 1013.1
20260504191021 17 152 0.0 8.0 0.00 0.00 0.00 69 1013.1
20260504190523 17 169 1.6 8.0 0.00 0.00 0.00 70 1013.2
20260504190026 17 246 1.6 8.0 0.00 0.00 0.00 70 1013.3
20260504185520 17 211 0.0 6.4 0.00 0.00 0.00 71 1013.3
20260504185020 17 286 1.6 14.5 0.00 0.00 0.00 72 1013.3
20260504184520 17 228 4.8 14.5 0.00 0.00 0.00 72 1013.4
20260504184022 16 191 3.2 12.9 0.00 0.00 0.00 72 1013.4
20260504183519 16 244 0.0 11.3 0.00 0.00 0.00 73 1013.4
20260504183019 16 316 0.0 11.3 0.00 0.00 0.00 73 1013.4
20260504182518 16 140 1.6 11.3 0.00 0.00 0.00 73 1013.4
20260504182018 16 176 0.0 3.2 0.00 0.00 0.00 75 1013.3
20260504181520 15 347 0.0 8.0 0.00 0.00 0.00 75 1013.3
20260504181018 15 144 1.6 8.0 0.00 0.00 0.00 75 1013.4
20260504180518 15 176 0.0 4.8 0.00 0.00 0.00 75 1013.4
20260504180017 15 224 0.0 4.8 0.00 0.00 0.00 76 1013.4
20260504175519 15 270 0.0 6.4 0.00 0.00 0.00 76 1013.4
20260504175020 15 158 0.0 6.4 0.00 0.00 0.00 76 1013.3
20260504174520 15 240 1.6 8.0 0.00 0.00 0.00 76 1013.4
20260504174017 15 125 1.6 9.7 0.00 0.00 0.00 76 1013.3
20260504173517 15 141 1.6 9.7 0.00 0.00 0.00 76 1013.3
20260504173017 15 162 0.0 4.8 0.00 0.00 0.00 76 1013.3
20260504172515 15 219 0.0 4.8 0.00 0.00 0.00 77 1013.3
20260504172019 15 150 0.0 8.0 0.00 0.00 0.00 77 1013.4
20260504171516 14 158 3.2 16.1 0.00 0.00 0.00 77 1013.3
20260504171015 14 180 3.2 16.1 0.00 0.00 0.00 77 1013.3
20260504170515 14 141 4.8 14.5 0.00 0.00 0.00 76 1013.3
20260504151008 13 148 0.0 6.4 0.00 0.00 0.00 79 1012.7
20260504150506 13 122 1.6 6.4 0.00 0.00 0.00 79 1012.7
20260504141001 12 186 1.6 8.0 0.00 0.00 0.00 81 1012.1
20260504140501 12 208 1.6 9.7 0.00 0.00 0.00 81 1012.1
20260504140103 12 146 1.6 9.7 0.00 0.00 0.00 81 1012.0
20260504130553 13 147 0.0 3.2 0.00 0.00 0.00 80 1011.1